TimeMDT,TemperatureF,Dew PointF,Humidity,Sea Level PressureIn,VisibilityMPH,Wind Direction,Wind SpeedMPH,Gust SpeedMPH,PrecipitationIn,Events,Conditions,WindDirDegrees,DateUTC
12:53 AM,55.9,24.1,29,29.88,10.0,SSE,16.1,-,N/A,,Mostly Cloudy,160,2014-03-17 06:53:00
1:53 AM,55.9,23.0,28,29.82,10.0,SE,13.8,-,N/A,,Mostly Cloudy,130,2014-03-17 07:53:00
2:53 AM,57.0,21.9,26,29.77,10.0,SSE,11.5,-,N/A,,Overcast,150,2014-03-17 08:53:00
3:53 AM,57.9,21.0,24,29.72,10.0,South,16.1,27.6,N/A,,Mostly Cloudy,190,2014-03-17 09:53:00
4:53 AM,57.0,21.0,25,29.66,10.0,South,11.5,-,N/A,,Overcast,180,2014-03-17 10:53:00
5:53 AM,59.0,19.0,21,29.62,10.0,South,15.0,25.3,N/A,,Mostly Cloudy,180,2014-03-17 11:53:00
6:53 AM,59.0,18.0,20,29.58,10.0,South,23.0,28.8,N/A,,Overcast,180,2014-03-17 12:53:00
7:53 AM,57.9,18.0,21,29.55,10.0,South,21.9,29.9,N/A,,Mostly Cloudy,180,2014-03-17 13:53:00
8:53 AM,59.0,17.1,20,29.55,10.0,WSW,13.8,21.9,N/A,,Mostly Cloudy,250,2014-03-17 14:53:00
9:53 AM,62.1,18.0,18,29.52,10.0,West,19.6,28.8,N/A,,Mostly Cloudy,280,2014-03-17 15:53:00
10:53 AM,62.1,17.1,18,29.56,7.0,WNW,26.5,39.1,N/A,,Mostly Cloudy,300,2014-03-17 16:53:00
11:53 AM,51.1,28.9,43,29.70,7.0,NNW,36.8,47.2,N/A,,Mostly Cloudy,340,2014-03-17 17:53:00
12:53 PM,46.9,21.9,37,29.76,10.0,WNW,21.9,35.7,N/A,,Mostly Cloudy,300,2014-03-17 18:53:00
1:53 PM,46.0,18.0,33,29.78,9.0,WNW,24.2,40.3,0.00,Rain,Light Rain,300,2014-03-17 19:53:00
2:53 PM,45.0,18.0,34,29.78,10.0,NW,23.0,36.8,0.00,,Mostly Cloudy,320,2014-03-17 20:53:00
3:53 PM,46.9,8.1,21,29.78,10.0,NW,27.6,46.0,N/A,,Mostly Cloudy,320,2014-03-17 21:53:00
4:53 PM,48.0,7.0,19,29.79,10.0,WNW,26.5,39.1,N/A,,Scattered Clouds,300,2014-03-17 22:53:00
5:53 PM,46.0,10.0,23,29.81,10.0,WNW,25.3,36.8,N/A,,Mostly Cloudy,300,2014-03-17 23:53:00
6:53 PM,46.0,12.9,26,29.81,10.0,NW,27.6,38.0,N/A,,Mostly Cloudy,310,2014-03-18 00:53:00
7:53 PM,43.0,18.0,37,29.82,10.0,North,17.3,35.7,N/A,,Mostly Cloudy,350,2014-03-18 01:53:00
8:02 PM,42.1,21.0,43,29.88,10.0,North,18.4,-,N/A,,Mostly Cloudy,10,2014-03-18 02:02:00
8:53 PM,39.9,28.0,63,29.86,9.0,North,16.1,-,0.00,,Unknown,10,2014-03-18 02:53:00
9:53 PM,37.9,30.0,73,29.87,9.0,NNE,11.5,-,0.00,Snow,Light Snow,20,2014-03-18 03:53:00
10:53 PM,39.0,28.0,65,29.88,9.0,North,10.4,-,0.00,,Overcast,350,2014-03-18 04:53:00
11:53 PM,37.0,28.0,70,29.94,9.0,North,17.3,-,0.00,Snow,Light Snow,360,2014-03-18 05:53:00